Weather History for Palembang, Indonesia

Change the Weather History Date:

Saturday, November 30, 2013

  Actual Average Record
Temperature  
Mean Temperature 84 °F -  
Max Temperature 93 °F - - ()
Min Temperature 74 °F - - ()
Cooling Degree Days 18    
Growing Degree Days 34 (Base 50)    
Moisture  
Dew Point 75 °F    
Average Humidity 81    
Maximum Humidity 96    
Minimum Humidity 55    
Precipitation  
Precipitation 0.31 in - - ()
Sea Level Pressure  
Sea Level Pressure 29.78 in    
Wind  
Wind Speed 3 mph ()    
Max Wind Speed 15 mph    
Max Gust Speed -    
Visibility 5.4 miles    
Events Rain , Thunderstorm    
T = Trace of Precipitation, MM = Missing Value Source: Averaged Metar Reports

Daily Weather History Graph

Daily Weather History Graph

Search for Another Location

Airport:

Trip Planner

Search our weather history database for the weather conditions in past years. The results will help you decide how hot, cold, wet, or windy it might be!

Date:

Astronomy

Nov. 30, 2013 Rise Set
Actual Time 5:41 AM WIB 5:58 PM WIB
Civil Twilight 5:19 AM WIB 6:20 PM WIB
Nautical Twilight 4:53 AM WIB 6:46 PM WIB
Astronomical Twilight 4:27 AM WIB 7:12 PM WIB
Moon 2:56 AM WIB (11/30) 3:26 PM WIB (11/30)
Length of Visible Light 13h 01m
Length of Day
12h 16m
Waning Crescent, 10% of the Moon is Illuminated
Nov 30
Waning Crescent
Dec 3
New
Dec 9
First Quarter
Dec 17
Full
Dec 25
Last Quarter

Hourly Weather History & Observations

Time (WIB) Temp. Heat Index Dew Point Humidity Pressure Visibility Wind Dir Wind Speed Gust Speed Precip Events Conditions
1:00 AM 75 °F - 73 °F 91% 29.80 in 6 mi West 4.6 mph - -   Partly Cloudy
4:00 AM 74 °F - 73 °F 96% 29.77 in 3 mi Calm Calm - -   Haze
4:00 AM 75.2 °F - 73.4 °F 94% 29.77 in 3.1 mi Calm Calm - N/A   Haze
5:00 AM 75.2 °F - 73.4 °F 94% 29.77 in 3.7 mi Calm Calm - N/A   Scattered Clouds
5:30 AM 75.2 °F - 73.4 °F 94% 29.80 in 4.3 mi South 3.5 mph - N/A   Scattered Clouds
6:00 AM 75.2 °F - 73.4 °F 94% 29.80 in 5.0 mi Calm Calm - N/A   Scattered Clouds
6:30 AM 75.2 °F - 73.4 °F 94% 29.80 in 4.3 mi WSW 3.5 mph - N/A   Partly Cloudy
7:00 AM 75 °F - 74 °F 95% 29.83 in 2 mi Calm Calm - -   Mist
7:30 AM 75.2 °F - 73.4 °F 94% 29.83 in 2.5 mi South 5.8 mph - N/A   Mostly Cloudy
8:00 AM 77.0 °F - 75.2 °F 94% 29.83 in 3.7 mi SSW 5.8 mph - N/A   Mostly Cloudy
8:30 AM 80.6 °F 87.1 °F 77.0 °F 89% 29.83 in 6.2 mi West 5.8 mph - N/A   Partly Cloudy
9:00 AM 82.4 °F 90.9 °F 77.0 °F 84% 29.83 in 6.2 mi Calm Calm - N/A   Partly Cloudy
9:30 AM 84.2 °F 94.1 °F 77.0 °F 79% 29.83 in 6.2 mi Calm Calm - N/A   Partly Cloudy
10:00 AM 85 °F - 76 °F 68% 29.85 in 6 mi SSW 5.8 mph - -   Partly Cloudy
10:00 AM 84.2 °F 92.3 °F 75.2 °F 74% 29.83 in 6.2 mi SSW 5.8 mph - N/A   Scattered Clouds
10:30 AM 86.0 °F 95.1 °F 75.2 °F 70% 29.83 in 6.2 mi West 5.8 mph - N/A   Mostly Cloudy
11:00 AM 86.0 °F 95.1 °F 75.2 °F 70% 29.80 in 6.2 mi WNW 5.8 mph - N/A   Mostly Cloudy
11:30 AM 87.8 °F 99.7 °F 77.0 °F 70% 29.80 in 6.2 mi South 5.8 mph - N/A   Mostly Cloudy
12:00 PM 87.8 °F 97.6 °F 75.2 °F 66% 29.77 in 6.2 mi South 5.8 mph - N/A   Mostly Cloudy
12:30 PM 87.8 °F 97.6 °F 75.2 °F 66% 29.74 in 6.2 mi Calm Calm - N/A   Mostly Cloudy
1:00 PM 89 °F - 75 °F 55% 29.75 in 6 mi SW 5.8 mph - -   Mostly Cloudy
1:00 PM 89.6 °F 99.8 °F 75.2 °F 62% 29.74 in 6.2 mi SW 5.8 mph - N/A   Mostly Cloudy
1:30 PM 89.6 °F 99.8 °F 75.2 °F 62% 29.71 in 6.2 mi West 5.8 mph - N/A   Mostly Cloudy
2:00 PM 91.4 °F 102.5 °F 75.2 °F 59% 29.71 in 6.2 mi West 5.8 mph - N/A   Scattered Clouds
2:30 PM 91.4 °F 102.5 °F 75.2 °F 59% 29.68 in 6.2 mi WSW 5.8 mph - N/A   Scattered Clouds
3:00 PM 91.4 °F 102.5 °F 75.2 °F 59% 29.68 in 6.2 mi WNW 5.8 mph - N/A   Scattered Clouds
4:00 PM 82 °F - 76 °F 77% 29.71 in 6 mi NE 9.2 mph - -   Mostly Cloudy
4:30 PM 82.4 °F 89.5 °F 75.2 °F 79% 29.71 in 6.2 mi NE 5.8 mph - N/A   Mostly Cloudy
5:00 PM 82.4 °F 90.9 °F 77.0 °F 84% 29.71 in 6.2 mi NNE 5.8 mph - N/A Thunderstorm Thunderstorm
5:30 PM 82.4 °F 89.5 °F 75.2 °F 79% 29.71 in 6.2 mi NNE 5.8 mph - N/A   Partly Cloudy
6:00 PM 80.6 °F 86.2 °F 75.2 °F 84% 29.74 in 5.0 mi NE 4.6 mph - N/A Rain Light Rain
6:30 PM 80.6 °F 86.2 °F 75.2 °F 84% 29.74 in 6.2 mi North 3.5 mph - N/A   Partly Cloudy
7:00 PM 81 °F - 77 °F 84% 29.77 in 6 mi NNE 3.5 mph - - Rain Light Rain
7:00 PM 80.6 °F 87.1 °F 77.0 °F 89% 29.77 in 6.2 mi NNE 3.5 mph - N/A   Partly Cloudy
7:30 PM 80.6 °F 87.1 °F 77.0 °F 89% 29.77 in 5.0 mi WNW 4.6 mph - N/A   Partly Cloudy
8:00 PM 78.8 °F - 75.2 °F 89% 29.80 in 6.2 mi WNW 10.4 mph - N/A   Partly Cloudy
8:30 PM 77.0 °F - 75.2 °F 94% 29.83 in 6.2 mi West 15.0 mph - N/A   Partly Cloudy
9:00 PM 75.2 °F - 73.4 °F 94% 29.83 in 6.2 mi WNW 11.5 mph - N/A   Partly Cloudy
9:30 PM 75.2 °F - 73.4 °F 94% 29.83 in 6.2 mi WNW 4.6 mph - N/A   Partly Cloudy
10:00 PM 75 °F - 74 °F 95% 29.86 in 5 mi Calm Calm - - Rain Light Rain
10:00 PM 75.2 °F - 73.4 °F 94% 29.86 in 3.7 mi Calm Calm - N/A Rain Rain